Tracking 28052 objects as of 25-Sep-2023
HD Live streaming from Space Station
objects crossing your sky now

GARUDA 1

Track GARUDA 1 now!
GARUDA 1 is classified as:


NORAD ID: 26089
Int'l Code: 2000-011A
Perigee: 35,874.7 km
Apogee: 35,909.9 km
Inclination: 7.2 °
Period: 1,441.1 minutes
Semi major axis: 42263 km
RCS: 16.0243 m2 (large)
Launch date: February 12, 2000
Source: Indonesia (INDO)
Launch site: TYURATAM MISSILE AND SPACE COMPLEX (TTMTR)

L-band; mobile telephone communications.
Your satellite tracking list
Your tracking list is empty




NASA's NSSDC Master Catalog

Two Line Element Set (TLE):
1 26089U 00011A   23267.83103858 -.00000231  00000-0  00000-0 0  9990
2 26089   7.1753  76.0917 0004160  90.5204 111.4464  0.99921284 31707
Source of the keplerian elements: AFSPC